Date String (YYYY-MM-DD hh:mm:ss) UTC,Instrument flags,absolute air pressure of the measurement (hPa),sample flow rate (lpm),inlet stack bypass flow (lpm),air temperature of the measurement (°C),ambient temperature measured by the external sensor (°C),aerosol sample conditioner tube jacket temperature (°C),OPC LED temperature (°C),internal box temperature (°C),relative humidity of the measurement (%),span deviation,mass concentration of particles derived from Lorenz-Mie calculation of OPC scattering (μg/m³),mass concentration of particles derived from Lorenz-Mie calculation of OPC scattering (μg/m³),mass concentration of particles derived from Lorenz-Mie calculation of OPC scattering (μg/m³)
DateTimeUTC,F1_M11,P_M11,Q1_M11,Q2_M11,T1_M11,T2_M11,T3_M11,T4_M11,T5_M11,U1_M11,ZSPAN_M11,X0_M11,X2_M11,X1_M11
2023-10-23 07:00:00,SystemResetWarning,0824.2,4.98,000.00,029.1,027.7,000.0,037.5,030.7,12.7,0000.0,0016.12,0004.85,0003.81
2023-10-23 07:01:00,SystemResetWarning,0824.2,4.99,000.00,029.1,027.7,000.0,037.5,030.7,12.8,0000.0,0016.20,0004.83,0003.80
2023-10-23 07:02:00,SystemResetWarning,0824.2,5.00,000.00,029.1,027.7,000.0,037.5,030.7,12.8,0000.0,0016.64,0004.82,0003.79
2023-10-23 07:03:00,SystemResetWarning,0824.2,5.00,000.00,029.1,027.6,000.0,037.5,030.7,12.8,0000.0,0017.08,0004.80,0003.78
2023-10-23 07:04:00,SystemResetWarning,0824.2,5.01,000.00,029.1,027.6,000.0,037.5,030.7,12.9,0000.0,0016.72,0004.79,0003.79
2023-10-23 07:05:00,SystemResetWarning,0824.1,5.00,000.00,029.1,027.6,000.0,037.5,030.7,12.8,0000.0,0017.00,0004.80,0003.78
2023-10-23 07:06:00,SystemResetWarning,0824.1,4.99,000.00,029.1,027.6,000.0,037.5,030.7,12.7,0000.0,0016.58,0004.83,0003.77
2023-10-23 07:07:00,SystemResetWarning,0824.1,5.00,000.00,029.1,027.6,000.0,037.5,030.7,12.6,0000.0,0016.66,0004.87,0003.76
2023-10-23 07:08:00,SystemResetWarning,0824.0,5.00,000.00,029.1,027.6,000.0,037.5,030.7,12.5,0000.0,0015.25,0004.92,0003.76
2023-10-23 07:09:00,SystemResetWarning,0824.0,4.99,000.00,029.1,027.6,000.0,037.5,030.7,12.5,0000.0,0014.97,0004.98,0003.76
2023-10-23 07:10:00,SystemResetWarning,0824.0,5.00,000.00,029.1,027.6,000.0,037.5,030.7,12.6,0000.0,0015.10,0005.06,0003.76
2023-10-23 07:11:00,SystemResetWarning,0824.1,5.01,000.00,029.1,027.6,000.0,037.5,030.7,12.7,0000.0,0014.20,0005.02,0003.76
2023-10-23 07:12:00,SystemResetWarning,0824.1,5.00,000.00,029.1,027.6,000.0,037.5,030.7,12.7,0000.0,0015.01,0005.01,0003.75
2023-10-23 07:13:00,SystemResetWarning,0824.0,5.00,000.00,029.1,027.6,000.0,037.5,030.7,12.7,0000.0,0014.62,0005.06,0003.77
2023-10-23 07:14:00,SystemResetWarning,0824.1,5.00,000.00,029.1,027.6,000.0,037.5,030.7,12.7,0000.0,0014.14,0005.12,0003.77
2023-10-23 07:15:00,SystemResetWarning,0824.1,4.99,000.00,029.1,027.6,000.0,037.5,030.7,12.9,0000.0,0013.53,0005.12,0003.77
2023-10-23 07:16:00,SystemResetWarning,0824.1,5.00,000.00,029.1,027.6,000.0,037.5,030.7,12.9,0000.0,0013.99,0005.20,0003.78
2023-10-23 07:17:00,SystemResetWarning,0824.2,5.00,000.00,029.1,027.6,000.0,037.5,030.7,12.9,0000.0,0013.80,0005.19,0003.77
2023-10-23 07:18:00,SystemResetWarning,0824.2,4.99,000.00,029.1,027.6,000.0,037.5,030.7,13.0,0000.0,0014.49,0005.15,0003.77
2023-10-23 07:19:00,SystemResetWarning,0824.2,5.00,000.00,029.1,027.6,000.0,037.5,030.6,12.9,0000.0,0014.66,0005.13,0003.76
2023-10-23 07:20:00,SystemResetWarning,0824.2,5.00,000.00,029.1,027.6,000.0,037.5,030.7,12.9,0000.0,0015.63,0005.09,0003.76
2023-10-23 07:21:00,SystemResetWarning,0824.2,5.00,000.00,029.1,027.6,000.0,037.5,030.7,13.0,0000.0,0015.69,0005.06,0003.75
2023-10-23 07:22:00,SystemResetWarning,0824.1,5.00,000.00,029.1,027.6,000.0,037.5,030.7,13.0,0000.0,0016.13,0005.00,0003.75
2023-10-23 07:23:00,SystemResetWarning,0824.1,5.01,000.00,029.1,027.6,000.0,037.5,030.7,13.0,0000.0,0015.10,0005.01,0003.74
2023-10-23 07:24:00,SystemResetWarning,0824.1,5.01,000.00,029.1,027.6,000.0,037.5,030.7,13.0,0000.0,0015.17,0005.04,0003.74
2023-10-23 07:25:00,SystemResetWarning,0824.2,4.98,000.00,029.1,027.6,000.0,037.5,030.7,13.0,0000.0,0015.29,0004.99,0003.71
2023-10-23 07:26:00,SystemResetWarning,0824.2,5.01,000.00,029.1,027.6,000.0,037.5,030.7,13.0,0000.0,0015.36,0004.92,0003.70
2023-10-23 07:27:00,SystemResetWarning,0824.2,5.01,000.00,029.1,027.6,000.0,037.5,030.7,13.0,0000.0,0014.41,0004.85,0003.68
2023-10-23 07:28:00,SystemResetWarning,0824.2,4.99,000.00,029.1,027.6,000.0,037.6,030.7,13.0,0000.0,0014.75,0004.85,0003.66
2023-10-23 07:29:00,SystemResetWarning,0824.2,4.99,000.00,029.1,027.6,000.0,037.6,030.7,12.7,0000.0,0014.25,0004.87,0003.66
2023-10-23 07:30:00,SystemResetWarning,0824.1,5.00,000.00,029.1,027.6,000.0,037.5,030.7,12.5,0000.0,0013.23,0004.84,0003.65
2023-10-23 07:31:00,SystemResetWarning,0824.1,5.00,000.00,029.1,027.6,000.0,037.5,030.7,12.4,0000.0,0012.32,0004.82,0003.64
2023-10-23 07:32:00,SystemResetWarning,0824.1,5.00,000.00,029.1,027.6,000.0,037.5,030.7,12.7,0000.0,0012.05,0004.75,0003.63
2023-10-23 07:33:00,SystemResetWarning,0824.2,5.00,000.00,029.1,027.6,000.0,037.6,030.7,12.7,0000.0,0011.42,0004.75,0003.62
2023-10-23 07:34:00,SystemResetWarning,0824.1,5.00,000.00,029.1,027.6,000.0,037.5,030.7,12.7,0000.0,0011.21,0004.72,0003.61
2023-10-23 07:35:00,SystemResetWarning,0824.2,5.00,000.00,029.1,027.6,000.0,037.5,030.7,12.6,0000.0,0011.13,0004.69,0003.60
2023-10-23 07:36:00,SystemResetWarning,0824.1,5.00,000.00,029.1,027.6,000.0,037.5,030.7,12.5,0000.0,0011.72,0004.69,0003.60
2023-10-23 07:37:00,SystemResetWarning,0824.1,5.00,000.00,029.1,027.6,000.0,037.5,030.7,12.5,0000.0,0011.88,0004.73,0003.61
2023-10-23 07:38:00,SystemResetWarning,0824.1,5.00,000.00,029.1,027.6,000.0,037.5,030.7,12.7,0000.0,0012.53,0004.73,0003.62
2023-10-23 07:39:00,SystemResetWarning,0824.1,5.00,000.00,029.1,027.6,000.0,037.5,030.7,12.7,0000.0,0012.32,0004.73,0003.63
2023-10-23 07:40:00,SystemResetWarning,0824.2,5.00,000.00,029.1,027.6,000.0,037.5,030.7,12.5,0000.0,0012.20,0004.72,0003.63
2023-10-23 07:41:00,SystemResetWarning,0824.2,5.00,000.00,029.1,027.6,000.0,037.5,030.7,12.6,0000.0,0012.25,0004.73,0003.64
2023-10-23 07:42:00,SystemResetWarning,0824.2,5.01,000.00,029.1,027.6,000.0,037.6,030.7,12.7,0000.0,0011.97,0004.72,0003.64
2023-10-23 07:43:00,SystemResetWarning,0824.1,5.00,000.00,029.1,027.6,000.0,037.5,030.7,12.7,0000.0,0012.54,0004.80,0003.64
2023-10-23 07:44:00,SystemResetWarning,0824.0,5.00,000.00,029.1,027.6,000.0,037.5,030.7,12.6,0000.0,0012.70,0004.84,0003.64
2023-10-23 07:45:00,SystemResetWarning,0824.0,5.00,000.00,029.1,027.6,000.0,037.5,030.7,12.7,0000.0,0012.60,0004.82,0003.64
2023-10-23 07:46:00,SystemResetWarning,0824.0,5.00,000.00,029.1,027.5,000.0,037.5,030.7,12.8,0000.0,0012.76,0004.79,0003.64
2023-10-23 07:47:00,SystemResetWarning,0824.0,4.99,000.00,029.1,027.5,000.0,037.5,030.7,12.8,0000.0,0012.16,0004.76,0003.66
2023-10-23 07:48:00,SystemResetWarning,0824.0,5.00,000.00,029.1,027.5,000.0,037.5,030.7,12.8,0000.0,0012.05,0004.76,0003.68
2023-10-23 07:49:00,SystemResetWarning,0824.0,4.99,000.00,029.1,027.5,000.0,037.5,030.7,12.8,0000.0,0012.30,0004.76,0003.69
2023-10-23 07:50:00,SystemResetWarning,0824.0,5.00,000.00,029.1,027.5,000.0,037.5,030.7,12.8,0000.0,0012.58,0004.75,0003.70
2023-10-23 07:51:00,SystemResetWarning,0824.0,5.00,000.00,029.1,027.5,000.0,037.6,030.7,12.8,0000.0,0012.49,0004.73,0003.71
2023-10-23 07:52:00,SystemResetWarning,0824.0,5.01,000.00,029.1,027.6,000.0,037.5,030.7,12.8,0000.0,0012.52,0004.78,0003.72
2023-10-23 07:53:00,SystemResetWarning,0824.0,5.00,000.00,029.1,027.6,000.0,037.5,030.7,12.7,0000.0,0012.55,0004.82,0003.74
2023-10-23 07:54:00,SystemResetWarning,0824.0,5.00,000.00,029.1,027.6,000.0,037.5,030.7,12.7,0000.0,0012.22,0004.82,0003.74
2023-10-23 07:55:00,SystemResetWarning,0824.0,4.99,000.00,029.1,027.6,000.0,037.5,030.7,12.7,0000.0,0012.67,0004.82,0003.76
2023-10-23 07:56:00,SystemResetWarning,0824.0,4.99,000.00,029.1,027.6,000.0,037.5,030.7,12.4,0000.0,0012.83,0004.85,0003.78
2023-10-23 07:57:00,SystemResetWarning,0824.0,4.99,000.00,029.1,027.5,000.0,037.5,030.7,12.5,0000.0,0012.50,0004.86,0003.80
2023-10-23 07:58:00,SystemResetWarning,0823.9,5.00,000.00,029.1,027.5,000.0,037.5,030.7,12.5,0000.0,0012.23,0004.88,0003.80
2023-10-23 07:59:00,SystemResetWarning,0823.9,5.00,000.00,029.1,027.5,000.0,037.5,030.7,12.4,0000.0,0012.00,0004.92,0003.80
